Location: Chuathbaluk
(61.5726°N, 159.2454°W)
Time: 17:38:29
(UTC+00:00)

ZACube-1 - Pass Details

Date: 22 January 2021
Orbit: 583 x 666 km, 97.6° (Epoch: 04 March)

Event Time Altitude Azimuth Distance (km) Brightness Sun altitude
Rises 15:27:28 0° 18° (NNE) 3,026 ? -26.7°
Reaches altitude 10° 15:29:49 10° 25° (NNE) 2,108 ? -26.4°
Maximum altitude 15:34:13 42° 97° (E) 953 ? -25.9°
Drops below altitude 10° 15:38:33 10° 169° (SSE) 2,075 ? -25.4°
Sets 15:40:51 0° 176° (S) 2,973 ? -25.1°
